TimeCDT,TemperatureF,Dew PointF,Humidity,Sea Level PressureIn,VisibilityMPH,Wind Direction,Wind SpeedMPH,Gust SpeedMPH,PrecipitationIn,Events,Conditions,WindDirDegrees,DateUTC
12:15 AM,50.0,49.1,97,29.72,10.0,Calm,Calm,-,N/A,,Mostly Cloudy,0,2013-10-06 05:15:00
12:35 AM,48.7,48.4,99,29.71,10.0,Calm,Calm,-,N/A,,Scattered Clouds,0,2013-10-06 05:35:00
12:55 AM,48.2,47.7,98,29.72,7.0,Calm,Calm,-,N/A,,Clear,0,2013-10-06 05:55:00
1:15 AM,47.1,46.8,99,29.72,0.2,Calm,Calm,-,N/A,Fog,Fog,0,2013-10-06 06:15:00
1:35 AM,48.6,48.4,99,29.72,0.2,West,5.8,-,N/A,Fog,Fog,260,2013-10-06 06:35:00
1:55 AM,48.7,48.6,99,29.72,10.0,SW,4.6,-,N/A,,Overcast,230,2013-10-06 06:55:00
2:15 AM,48.7,48.4,99,29.72,10.0,Calm,Calm,-,N/A,,Overcast,0,2013-10-06 07:15:00
2:35 AM,49.1,48.6,98,29.71,10.0,Calm,Calm,-,N/A,,Overcast,0,2013-10-06 07:35:00
2:55 AM,49.1,48.6,98,29.70,10.0,Calm,Calm,-,N/A,,Overcast,0,2013-10-06 07:55:00
3:15 AM,49.1,48.6,98,29.70,7.0,Calm,Calm,-,N/A,,Overcast,0,2013-10-06 08:15:00
3:35 AM,48.6,48.2,99,29.69,5.0,SW,3.5,-,N/A,,Overcast,230,2013-10-06 08:35:00
3:55 AM,47.8,47.3,98,29.69,7.0,West,3.5,-,N/A,,Overcast,270,2013-10-06 08:55:00
4:15 AM,46.6,45.7,97,29.70,10.0,West,6.9,-,N/A,,Mostly Cloudy,260,2013-10-06 09:15:00
4:35 AM,46.9,46.0,97,29.70,10.0,SW,3.5,-,N/A,,Overcast,230,2013-10-06 09:35:00
4:55 AM,46.4,45.1,95,29.69,10.0,SW,3.5,-,N/A,,Overcast,230,2013-10-06 09:55:00
5:15 AM,46.4,45.3,96,29.69,10.0,Calm,Calm,-,N/A,,Overcast,0,2013-10-06 10:15:00
5:35 AM,45.9,44.8,96,29.69,10.0,SSW,3.5,-,N/A,,Overcast,210,2013-10-06 10:35:00
5:55 AM,46.0,45.5,98,29.69,5.0,SW,4.6,-,N/A,,Overcast,230,2013-10-06 10:55:00
6:15 AM,45.7,45.5,99,29.70,1.0,SW,3.5,-,N/A,,Overcast,230,2013-10-06 11:15:00
6:35 AM,45.1,44.6,98,29.70,4.0,WSW,3.5,-,N/A,,Overcast,240,2013-10-06 11:35:00
6:55 AM,44.6,43.9,97,29.70,7.0,West,5.8,-,N/A,,Overcast,260,2013-10-06 11:55:00
7:15 AM,44.8,44.2,98,29.71,5.0,SW,4.6,-,N/A,,Overcast,220,2013-10-06 12:15:00
7:35 AM,44.6,44.1,98,29.71,2.0,SW,5.8,-,N/A,,Overcast,220,2013-10-06 12:35:00
7:55 AM,44.2,43.7,98,29.71,5.0,West,4.6,-,N/A,,Overcast,260,2013-10-06 12:55:00
8:15 AM,44.6,42.8,93,29.71,10.0,WSW,3.5,-,N/A,,Scattered Clouds,250,2013-10-06 13:15:00
8:35 AM,45.1,41.9,88,29.71,10.0,WSW,3.5,-,N/A,,Clear,240,2013-10-06 13:35:00
8:55 AM,45.5,41.4,85,29.70,10.0,SW,4.6,-,N/A,,Clear,230,2013-10-06 13:55:00
9:15 AM,46.0,42.1,86,29.71,10.0,SW,6.9,-,N/A,,Clear,220,2013-10-06 14:15:00
9:35 AM,46.9,42.3,84,29.70,10.0,WSW,6.9,-,N/A,,Clear,240,2013-10-06 14:35:00
9:55 AM,47.7,41.5,79,29.70,10.0,SW,5.8,-,N/A,,Clear,230,2013-10-06 14:55:00
10:15 AM,48.6,40.3,73,29.70,10.0,WSW,8.1,-,N/A,,Clear,250,2013-10-06 15:15:00
10:35 AM,49.3,39.6,69,29.71,10.0,SW,6.9,-,N/A,,Clear,230,2013-10-06 15:35:00
10:55 AM,50.2,37.0,61,29.71,10.0,SW,8.1,-,N/A,,Clear,230,2013-10-06 15:55:00
11:15 AM,51.1,37.9,61,29.71,10.0,West,9.2,-,N/A,,Clear,260,2013-10-06 16:15:00
11:35 AM,52.0,37.2,57,29.71,10.0,SSW,11.5,-,N/A,,Clear,210,2013-10-06 16:35:00
11:55 AM,52.2,37.9,58,29.71,10.0,SW,8.1,-,N/A,,Clear,230,2013-10-06 16:55:00
12:15 PM,52.9,37.2,55,29.71,10.0,WSW,9.2,-,N/A,,Clear,240,2013-10-06 17:15:00
12:35 PM,52.7,35.8,53,29.70,10.0,SW,5.8,-,N/A,,Clear,220,2013-10-06 17:35:00
12:55 PM,53.6,36.0,51,29.69,10.0,WSW,4.6,-,N/A,,Clear,240,2013-10-06 17:55:00
1:15 PM,53.6,36.5,52,29.69,10.0,SSW,3.5,-,N/A,,Clear,210,2013-10-06 18:15:00
1:35 PM,54.0,35.8,50,29.68,10.0,South,3.5,-,N/A,,Clear,170,2013-10-06 18:35:00
1:55 PM,53.4,34.3,48,29.68,10.0,SSW,4.6,-,N/A,,Clear,210,2013-10-06 18:55:00
2:15 PM,54.5,36.7,51,29.67,10.0,South,4.6,-,N/A,,Clear,180,2013-10-06 19:15:00
2:35 PM,55.0,36.9,50,29.67,10.0,SW,3.5,-,N/A,,Clear,220,2013-10-06 19:35:00
2:55 PM,55.6,37.0,50,29.67,10.0,Calm,Calm,-,N/A,,Clear,0,2013-10-06 19:55:00
3:15 PM,54.9,36.5,50,29.67,10.0,SSW,3.5,-,N/A,,Clear,210,2013-10-06 20:15:00
3:35 PM,54.1,38.7,56,29.67,10.0,South,8.1,-,N/A,,Clear,180,2013-10-06 20:35:00
3:55 PM,55.0,37.9,53,29.67,10.0,SW,3.5,-,N/A,,Clear,220,2013-10-06 20:55:00
4:15 PM,55.4,37.8,52,29.66,10.0,SSW,6.9,-,N/A,,Clear,210,2013-10-06 21:15:00
4:35 PM,55.0,38.1,53,29.67,10.0,SW,4.6,-,N/A,,Clear,230,2013-10-06 21:35:00
4:55 PM,54.7,38.3,54,29.67,10.0,SSW,5.8,-,N/A,,Clear,200,2013-10-06 21:55:00
5:15 PM,54.1,38.7,56,29.67,10.0,WSW,4.6,-,N/A,,Clear,240,2013-10-06 22:15:00
5:35 PM,52.9,39.0,59,29.68,10.0,SW,8.1,-,N/A,,Mostly Cloudy,230,2013-10-06 22:35:00
5:55 PM,52.3,39.7,62,29.68,10.0,SSW,4.6,-,N/A,,Scattered Clouds,210,2013-10-06 22:55:00
6:15 PM,51.4,40.1,65,29.68,10.0,WSW,4.6,-,N/A,,Clear,240,2013-10-06 23:15:00
6:35 PM,50.0,40.1,69,29.68,10.0,WSW,3.5,-,N/A,,Clear,240,2013-10-06 23:35:00
6:55 PM,48.9,40.6,73,29.68,10.0,SW,3.5,-,N/A,,Clear,230,2013-10-06 23:55:00
7:15 PM,48.2,40.6,75,29.69,10.0,SW,5.8,-,N/A,,Scattered Clouds,230,2013-10-07 00:15:00
7:35 PM,48.6,40.5,74,29.70,10.0,SW,6.9,-,N/A,,Overcast,220,2013-10-07 00:35:00
7:55 PM,48.4,40.6,75,29.70,10.0,SW,6.9,-,N/A,,Overcast,220,2013-10-07 00:55:00
8:15 PM,48.2,40.8,76,29.71,10.0,WSW,5.8,-,N/A,,Overcast,250,2013-10-07 01:15:00
8:35 PM,48.2,40.8,76,29.71,10.0,WSW,6.9,-,N/A,,Overcast,240,2013-10-07 01:35:00
8:55 PM,48.4,41.7,78,29.71,10.0,SW,8.1,-,N/A,,Overcast,230,2013-10-07 01:55:00
9:15 PM,48.4,42.3,79,29.71,10.0,WSW,6.9,-,N/A,,Overcast,250,2013-10-07 02:15:00
9:35 PM,48.2,42.8,82,29.71,10.0,WSW,4.6,-,N/A,,Overcast,250,2013-10-07 02:35:00
9:55 PM,48.2,43.2,83,29.71,10.0,WSW,4.6,-,N/A,,Overcast,240,2013-10-07 02:55:00
10:15 PM,48.0,43.7,85,29.71,10.0,West,5.8,-,N/A,,Overcast,270,2013-10-07 03:15:00
10:35 PM,48.0,44.1,86,29.71,10.0,West,4.6,-,N/A,,Overcast,270,2013-10-07 03:35:00
10:55 PM,48.0,45.3,90,29.71,10.0,WNW,4.6,-,N/A,Rain,Light Rain,300,2013-10-07 03:55:00
11:15 PM,48.6,46.9,94,29.71,10.0,NNW,5.8,-,N/A,Rain,Light Rain,330,2013-10-07 04:15:00
11:35 PM,48.4,46.9,95,29.71,10.0,NW,9.2,-,0.01,Rain,Light Rain,320,2013-10-07 04:35:00
11:55 PM,47.5,45.9,94,29.71,10.0,NNW,13.8,19.6,0.01,,Light Drizzle,330,2013-10-07 04:55:00